Вернуться в каталог

THORAD AGENA D DEB

АктивенSSO
NORAD 4977·DEBRIS·🇺🇸 United States

Запущен Apr 8, 1970 с Vandenberg Space Force Base

Loading…

Ближайшие Пролёты (ближайшие 24 часа)

TLE

СвежийSource: Space-Track

Эпоха: Sep 13, 2026, 22:35 UTC

1  4977U 70025GX  26256.94133861  .00000020  00000-0  10186-3 0  9998
2  4977 100.1630  41.3955 0020334  41.9832  80.8607 13.52477830781977

Отслеживайте THORAD AGENA D DEB в реальном времени с AllMySat

Download on the App Store